Tracking 33744 objects as of 12-Apr-2026
HD Live streaming from Space Station
objects crossing your sky now

STARLINK-36839

Track STARLINK-36839 now!
10-day predictions
STARLINK-36839 is classified as:


NORAD ID: 68125
Int'l Code: 2026-044AA
Perigee: 471.3 km
Apogee: 473.9 km
Inclination: 97.3 °
Period: 93.9 minutes
Semi major axis: 6843 km
RCS: Unknown
Launch date: March 8, 2026
Source: United States (US)
Launch site: AIR FORCE WESTERN TEST RANGE (AFWTR)
Your satellite tracking list
Your tracking list is empty




NASA's NSSDC Master Catalog

Two Line Element Set (TLE):
1 68125U 26044AA  26102.50001156 -.00052103  00000-0 -16214-2 0  9996
2 68125  97.2850  63.8040 0001922  91.6493 115.6689 15.33467575  6392
Source of the keplerian elements: AFSPC